Date,TemperatureHighF,TemperatureAvgF,TemperatureLowF,DewpointHighF,DewpointAvgF,DewpointLowF,HumidityHigh,HumidityAvg,HumidityLow,PressureMaxIn,PressureMinIn,WindSpeedMaxMPH,WindSpeedAvgMPH,GustSpeedMaxMPH,PrecipitationSumIn
2013-2-1,23.9,23.5,22.8,14.1,13.3,12.8,68,65,62,29.92,29.91,1,0,1,0.00
2013-2-2,36.0,28.1,20.3,29.0,20.8,13.9,84,74,62,29.91,29.62,8,2,9,0.01
2013-2-3,49.8,37.8,26.8,36.5,28.2,20.0,92,70,39,29.72,29.54,8,4,15,0.09
2013-2-4,50.0,37.9,22.8,28.2,23.3,18.9,87,59,32,29.70,29.50,6,2,8,0.00
2013-2-5,62.6,48.7,40.3,39.9,34.6,25.8,82,60,36,29.58,29.48,9,3,13,0.00
2013-2-6,67.5,46.6,30.7,38.3,29.6,14.7,90,57,13,29.74,29.58,6,2,8,0.00
2013-2-7,56.7,44.8,40.3,43.7,34.6,28.6,85,68,34,29.70,29.50,4,1,4,0.00
2013-2-8,56.5,46.2,37.8,48.5,38.1,28.1,93,75,45,29.83,29.45,10,4,15,0.06
2013-2-9,60.3,44.6,28.4,28.1,21.4,14.4,81,43,20,29.90,29.77,9,3,11,0.19
2013-2-10,64.4,47.6,37.9,44.3,32.2,22.0,90,59,23,29.79,29.54,6,2,11,0.20
2013-2-11,58.5,51.7,43.7,52.7,43.4,28.9,93,75,45,29.67,29.53,10,4,15,0.08
2013-2-12,58.5,48.7,35.1,37.0,29.0,21.1,79,50,25,29.73,29.42,4,1,11,0.05
2013-2-13,47.8,42.9,37.9,44.7,38.0,32.4,91,83,72,29.54,29.25,6,1,14,0.26
2013-2-14,57.0,43.9,35.6,34.6,32.7,31.0,85,67,41,29.63,29.54,5,1,14,0.00
2013-2-15,57.9,42.2,33.1,38.7,33.4,27.7,87,72,47,29.66,29.57,5,2,14,0.01
2013-2-16,40.8,32.1,26.8,28.5,18.2,5.5,86,58,29,30.08,29.55,6,3,14,0.00
2013-2-17,45.3,31.5,19.9,14.3,9.7,1.1,66,43,17,30.21,30.08,6,2,13,0.00
2013-2-18,62.8,42.4,22.8,24.3,20.1,14.3,75,46,21,30.24,29.94,8,2,18,0.00
2013-2-19,54.7,45.2,34.5,41.5,25.6,-0.2,88,53,13,30.13,29.87,10,4,22,0.25
2013-2-20,46.6,34.9,24.6,18.9,12.4,-0.6,70,42,15,30.18,30.10,4,1,9,0.00
2013-2-21,56.3,39.4,25.9,35.8,17.8,8.8,85,46,16,30.19,29.93,5,2,13,0.52
2013-2-22,58.6,48.5,39.4,46.1,42.0,35.3,91,79,60,30.02,29.93,5,2,14,0.06
2013-2-23,62.1,50.4,41.4,48.6,44.6,38.7,91,81,58,29.99,29.80,3,1,8,0.07
2013-2-24,60.1,44.3,31.3,38.9,25.6,15.4,91,53,19,30.03,29.88,4,1,9,0.00
2013-2-25,62.2,46.0,32.4,33.4,26.0,22.0,69,47,25,30.01,29.75,4,2,10,0.00
2013-2-26,63.9,49.8,42.1,49.0,40.7,33.2,89,71,51,29.75,29.41,10,4,25,0.47
2013-2-27,50.2,42.5,39.7,36.1,32.9,29.7,78,69,53,29.82,29.66,8,4,18,0.01
2013-2-28,42.8,38.0,35.2,31.4,27.0,22.5,82,65,47,29.95,29.77,6,3,16,0.00